Theta_e
312 312 311 311 311 310 310 310 310 309 309 309 308 308 308 307 307 307 307 307 306 306 306 306 306 306 305 305 305 305 304 304 304 304 305 305 305 305 305 305 305 305 304 304 304 304 304 303 303 302 301 301 301 301 301 301 301 300 299 299 299 299 299 299 299 299 298 298 297
311 311 311 311 311 310 310 309 309 309 309 309 309 308 308 308 307 307 307 307 307 307 307 307 307 307 306 305 305 305 304 304 304 304 304 304 305 305 305 305 305 305 305 304 304 304 303 303 302 301 301 301 301 300 300 301 301 300 299 299 299 299 299 298 298 298 298 298 297
311 311 311 311 310 310 309 308 308 309 308 309 309 309 308 308 307 307 307 307 308 307 307 307 307 307 306 305 305 305 305 305 304 304 304 304 304 305 305 305 305 305 305 304 304 303 303 302 302 301 301 300 300 300 300 300 300 299 299 299 298 298 298 298 298 298 298 298 297
310 310 310 310 310 309 309 308 308 309 309 309 309 309 308 308 308 308 308 308 308 308 307 307 307 307 307 306 305 305 305 305 305 304 304 304 304 304 304 305 304 304 304 304 304 303 303 302 301 301 301 301 300 300 300 299 300 299 299 299 298 298 297 297 297 298 298 297 297
310 310 310 310 310 310 310 309 309 309 309 309 308 308 308 308 308 308 308 308 308 307 307 308 307 308 307 306 305 305 304 304 304 304 304 304 304 304 304 304 304 304 304 304 303 303 303 302 301 301 301 301 300 300 300 300 299 299 298 298 298 298 297 297 297 297 297 297 297
309 310 310 310 310 310 310 310 309 309 309 309 308 308 307 307 308 307 307 307 307 308 308 308 307 307 307 306 305 305 304 304 304 304 304 304 304 304 304 304 304 304 304 304 303 303 303 302 301 300 301 301 301 301 301 300 299 298 298 298 298 297 297 296 296 297 297 296 296
309 309 309 310 310 310 310 310 310 309 309 309 308 308 307 307 307 307 307 307 307 307 307 307 307 306 306 306 305 304 304 304 304 304 304 304 304 304 304 304 304 304 303 303 303 303 302 302 301 300 300 300 300 301 301 301 299 298 298 297 297 297 297 297 297 296 296 296 296
309 309 309 309 309 309 310 309 309 309 309 308 308 308 307 308 307 307 307 307 307 307 307 306 306 306 306 305 305 304 304 304 304 304 304 304 304 304 304 303 304 303 303 303 303 302 302 301 301 300 300 300 300 300 301 301 300 298 298 298 297 297 297 297 297 297 296 296 296
309 309 309 309 309 309 309 309 309 308 308 308 308 308 308 308 308 307 307 307 307 307 307 306 306 306 306 305 305 304 304 304 304 304 304 304 304 304 304 303 303 303 303 303 302 302 302 301 300 300 300 300 300 300 300 300 299 299 298 298 297 297 297 297 297 296 296 296 296
308 309 309 308 308 309 309 309 309 308 308 308 308 308 308 308 308 307 307 307 307 307 306 306 306 305 305 305 304 304 304 304 304 304 304 304 304 304 304 303 303 303 302 302 302 302 301 301 300 300 301 300 300 300 300 300 299 298 298 298 298 297 297 296 296 296 296 296 296
308 308 308 308 308 308 308 308 308 308 308 308 308 308 308 307 307 307 307 307 307 306 306 306 306 305 305 304 304 304 304 304 304 304 304 304 304 304 303 303 303 303 302 302 302 301 301 300 300 300 300 301 301 300 300 299 298 298 298 298 298 297 297 296 296 296 296 296 296
308 308 308 308 308 308 307 307 307 307 307 307 308 308 307 307 307 307 307 307 306 306 306 306 306 305 304 304 304 304 304 304 304 304 304 304 304 304 303 303 303 303 302 302 302 301 300 300 300 300 300 300 300 300 300 299 298 297 297 298 298 297 297 296 296 295 295 295 295
308 308 308 308 308 307 307 307 306 307 307 307 307 307 307 307 307 307 307 306 306 306 306 306 306 305 304 304 304 304 303 303 303 303 303 303 303 303 303 303 303 302 302 302 301 301 300 300 300 300 300 300 300 300 300 299 298 297 297 297 297 297 297 296 295 295 295 295 295
308 307 307 307 307 307 306 306 306 306 306 306 306 307 307 307 307 307 306 306 306 305 305 305 305 305 304 304 304 303 303 303 303 303 303 303 303 303 302 302 302 302 301 301 301 301 300 300 300 300 300 300 299 300 299 299 298 297 297 297 297 297 297 296 295 295 295 294 294
307 307 307 307 306 306 306 305 305 306 306 306 306 306 306 306 306 306 306 306 305 305 305 304 304 304 304 304 304 303 303 303 302 302 302 302 302 302 302 302 302 302 301 301 301 301 300 300 300 300 300 299 299 299 299 299 298 297 297 297 297 297 296 296 295 295 294 294 294
306 306 306 306 306 305 305 305 305 305 305 305 305 306 306 306 306 306 305 305 305 305 304 304 304 303 304 303 303 303 303 302 302 302 302 302 302 302 302 302 301 301 301 301 300 300 300 300 300 300 300 300 299 299 299 299 298 297 297 297 297 297 297 296 295 295 294 294 294
305 305 305 306 305 305 305 304 305 305 305 305 305 305 305 305 305 305 305 304 304 304 304 304 303 303 303 303 303 303 302 302 302 301 301 301 301 301 301 301 301 301 301 300 300 300 300 300 300 300 300 300 300 299 299 299 298 297 297 297 297 297 297 296 296 295 294 294 294
304 304 305 305 305 305 305 305 304 305 305 305 305 305 305 305 305 305 304 304 304 303 303 303 303 303 303 302 302 302 302 302 301 301 301 301 301 301 301 301 301 301 301 300 300 300 300 299 300 300 300 300 299 299 299 299 298 297 297 297 297 297 297 296 296 295 294 294 294
303 304 304 304 304 304 304 304 304 305 305 305 305 305 305 305 305 304 304 304 304 304 303 303 303 303 302 302 302 302 302 301 301 301 301 301 301 301 301 301 301 301 301 300 300 300 300 299 299 299 299 299 299 299 299 298 298 297 297 296 296 296 296 296 296 295 294 294 294
303 303 303 303 304 304 304 304 304 304 305 305 305 305 305 305 305 304 304 303 304 304 303 303 302 302 302 302 302 302 301 301 301 301 301 301 301 301 301 301 301 301 300 300 300 300 300 300 299 299 299 298 298 298 298 298 297 297 296 296 296 296 296 296 295 295 294 294 294
302 302 303 303 303 304 304 304 304 304 305 305 305 305 304 304 304 304 304 303 303 303 303 303 302 302 302 302 301 301 301 301 301 301 301 301 301 301 301 301 301 300 300 300 300 300 300 299 299 299 298 298 298 298 297 297 297 296 296 295 295 295 295 295 294 294 293 293 293
302 302 303 303 303 303 304 304 304 304 304 304 304 304 304 304 303 303 303 303 303 303 302 302 302 302 302 301 301 301 301 301 301 301 301 301 301 301 301 301 300 300 300 299 299 299 299 299 299 298 298 297 297 297 297 296 296 295 295 295 294 294 294 294 294 293 293 293 293
302 302 303 303 303 303 303 303 303 303 303 304 304 303 303 303 302 303 303 303 303 302 302 302 302 302 302 301 301 301 301 301 301 301 301 301 301 300 300 300 300 300 299 299 299 299 299 298 298 297 297 297 296 296 296 296 295 294 294 294 293 293 293 293 293 293 292 292 292
302 302 302 302 302 302 302 303 303 303 303 303 303 303 302 302 302 302 302 302 302 302 301 301 302 302 302 301 301 301 301 300 300 300 300 300 300 300 299 299 299 299 299 298 298 298 298 298 297 297 296 296 296 295 295 295 294 294 293 293 292 292 292 292 292 292 292 292 292
302 302 302 302 302 301 301 301 302 302 302 302 302 302 302 302 301 301 301 301 301 301 301 301 301 301 301 301 301 300 300 300 300 299 299 299 299 299 298 298 298 298 298 298 297 298 298 297 297 296 295 295 295 295 294 294 294 293 293 292 292 292 291 291 291 291 291 291 291
301 301 301 301 301 300 300 300 300 301 301 302 302 301 301 301 300 300 300 300 300 300 301 300 301 301 300 300 300 300 299 299 299 299 298 298 298 297 297 297 297 297 297 297 297 297 297 297 297 296 295 294 294 293 293 293 293 293 292 292 292 291 290 290 290 290 290 290 290
301 300 300 300 300 299 299 299 300 300 301 301 301 300 300 300 300 300 299 299 300 300 300 300 300 300 300 299 299 299 298 299 299 298 298 297 296 296 296 296 296 296 296 296 296 296 297 297 297 296 295 294 293 293 292 292 292 292 292 291 291 290 290 290 289 289 289 289 289
300 299 299 299 299 298 299 299 299 299 300 300 300 300 300 300 299 299 299 299 299 299 299 299 299 299 299 298 298 298 298 298 298 298 298 297 296 296 295 296 296 296 296 295 296 296 296 297 297 296 294 293 293 292 292 291 291 291 290 290 290 290 290 290 289 289 289 289 289
299 299 299 298 298 298 298 298 298 299 299 299 299 299 299 299 298 298 298 298 298 298 298 298 298 298 298 298 297 297 297 297 297 297 297 296 296 295 295 295 295 295 295 295 295 296 296 297 296 296 294 293 292 292 291 291 290 290 290 290 290 290 290 290 290 289 289 289 289
299 299 298 297 297 297 297 297 298 298 298 299 299 298 298 297 297 297 297 297 298 298 298 298 298 297 297 297 297 297 296 297 296 296 296 296 295 295 295 295 295 295 294 295 295 296 296 296 296 296 295 293 292 291 291 290 290 290 289 289 290 290 290 290 290 289 289 289 289
298 298 297 297 297 297 297 297 298 298 298 298 298 297 297 297 297 297 297 297 297 298 298 298 297 297 297 297 296 296 296 296 296 295 295 295 295 295 294 295 294 294 294 294 295 296 296 296 296 296 295 293 292 291 291 290 290 290 289 289 289 289 289 290 290 290 290 290 289
297 297 297 297 296 296 296 297 297 297 297 297 297 296 296 296 296 297 297 297 297 297 297 296 296 296 296 296 295 295 295 295 294 294 294 294 294 294 294 294 293 293 293 294 295 295 296 296 296 296 295 293 291 290 291 290 290 290 290 289 289 290 290 290 290 290 290 290 290
297 296 296 296 296 296 296 296 296 296 296 296 296 296 295 296 296 296 297 297 297 296 296 295 295 295 295 294 294 294 294 294 294 293 293 294 294 293 293 292 292 292 292 293 294 295 296 296 296 296 295 293 291 290 290 290 290 290 290 290 290 290 290 290 290 290 290 290 290
296 296 296 296 296 295 295 295 295 295 295 295 295 295 295 295 295 295 295 295 295 295 295 295 295 295 294 294 294 293 293 292 293 292 292 293 293 292 292 291 291 290 290 292 294 295 295 296 296 296 295 293 291 290 290 290 290 290 290 290 290 291 291 291 291 291 291 291 291
295 295 295 295 295 295 294 294 294 294 294 294 294 294 294 294 294 294 294 294 294 294 294 294 294 294 294 293 293 292 292 291 291 291 291 291 291 291 290 290 289 289 289 291 293 294 295 296 296 295 294 293 291 290 290 290 290 290 290 290 291 291 291 291 291 291 291 291 291
295 295 295 294 294 294 293 293 293 293 293 293 293 293 293 294 294 293 293 293 293 293 292 292 292 292 291 291 291 291 291 291 290 290 290 290 290 289 289 288 288 288 289 291 293 294 295 296 296 295 295 293 291 291 290 290 290 290 290 290 290 290 291 291 291 291 291 290 290
295 295 294 293 293 292 292 292 292 292 292 292 292 292 292 292 292 292 292 292 292 291 291 291 291 290 290 290 290 290 290 290 289 288 288 288 289 288 288 288 288 288 289 291 293 294 295 296 296 296 294 293 291 291 291 291 290 290 290 290 290 290 290 290 290 290 290 290 290
294 294 293 292 291 291 291 292 292 292 292 292 292 291 291 291 291 291 291 291 291 290 290 290 290 289 289 289 288 288 288 288 288 287 287 287 288 288 288 287 287 288 290 292 294 295 296 296 296 295 294 292 291 291 291 290 290 290 290 290 290 290 290 290 289 289 289 289 289
293 293 292 291 290 290 291 291 292 292 291 291 290 290 290 290 290 290 290 290 290 290 289 289 288 288 288 287 287 286 286 286 287 287 287 287 288 287 287 287 288 289 291 293 295 296 296 296 295 294 292 291 291 291 290 290 289 289 289 289 289 289 289 289 289 289 288 288 288
292 291 291 290 290 290 291 291 291 291 290 289 289 288 289 289 289 289 289 289 289 289 288 288 287 287 286 286 285 285 285 285 286 286 287 287 287 287 287 288 289 290 292 294 295 295 295 295 294 293 292 291 291 290 290 289 289 288 288 288 288 288 288 288 288 288 288 288 287
290 290 290 290 290 290 290 290 289 289 288 288 287 287 288 288 287 287 287 287 287 287 287 286 285 285 285 285 284 284 284 284 285 285 286 286 287 287 287 289 289 291 292 293 294 294 294 294 293 292 291 291 290 290 289 289 288 287 287 287 287 287 287 287 287 287 287 287 287
Wind_Speed
13 12 10 10 9 8 8 8 8 7 7 7 8 8 8 8 8 7 7 7 7 7 7 7 7 7 8 11 12 12 12 12 13 13 13 13 12 12 12 11 11 11 11 11 10 10 10 10 9 7 6 6 7 7 7 7 8 8 9 9 8 8 9 10 10 10 10 10 8
15 14 12 10 9 8 8 8 8 8 8 7 7 8 8 7 7 7 7 8 7 7 6 6 7 8 9 11 12 12 12 12 13 13 13 13 13 12 12 11 11 11 11 11 11 10 9 9 9 7 6 6 7 7 8 7 8 9 10 11 8 8 8 9 9 10 10 10 8
15 14 13 12 11 10 9 8 9 10 10 9 8 7 7 7 7 7 7 7 8 7 7 6 7 8 10 11 11 11 11 11 12 12 12 12 12 13 12 11 12 12 11 11 11 10 9 9 8 7 6 6 7 8 8 8 8 9 10 11 8 7 7 7 8 8 8 8 8
15 15 14 14 14 14 12 10 10 11 11 9 8 8 8 7 7 7 7 8 8 8 8 7 7 8 9 10 10 10 11 11 12 12 12 11 12 13 13 12 12 12 12 11 11 11 10 10 8 7 7 7 8 8 8 7 9 9 8 9 7 7 7 6 7 7 7 6 8
16 15 14 14 16 15 13 11 11 11 10 9 8 8 8 7 7 7 7 8 8 8 8 9 8 7 8 9 11 11 11 11 12 11 11 11 12 12 13 13 12 12 12 12 12 11 11 11 7 6 7 8 7 7 8 8 9 8 8 7 7 7 7 6 6 6 6 6 6
16 16 15 14 16 15 13 11 12 12 10 9 9 9 9 8 8 8 8 8 8 9 10 10 9 8 9 10 11 11 11 11 11 11 11 11 11 12 12 13 13 12 11 11 12 12 11 11 7 6 6 7 7 8 8 9 9 8 8 7 7 7 6 7 6 6 6 7 8
16 16 16 15 16 15 13 12 12 11 11 10 11 12 12 10 10 11 11 9 9 9 9 9 9 9 10 11 11 11 11 11 11 11 11 11 11 12 12 12 13 12 12 12 12 12 11 10 7 6 6 6 6 7 9 10 9 9 8 8 7 6 7 8 7 6 7 9 10
15 16 16 16 15 15 15 14 12 11 11 10 12 13 14 13 13 12 12 10 9 9 8 8 10 11 11 11 11 11 11 11 11 11 12 11 12 12 12 12 12 12 12 12 12 12 11 9 7 7 7 6 6 7 9 10 10 10 9 9 7 7 7 7 7 7 8 11 12
14 15 15 15 15 15 15 15 14 13 12 12 13 14 14 14 13 13 12 10 9 9 9 9 11 12 12 12 12 11 11 11 11 11 11 11 12 12 12 11 12 12 12 11 12 12 12 9 7 7 7 6 6 7 9 11 11 11 10 9 8 8 8 8 8 9 10 11 12
14 14 15 14 15 15 15 15 14 15 14 14 14 14 14 13 13 13 11 10 9 9 10 10 11 12 13 13 12 12 11 11 11 11 11 11 12 12 12 11 12 12 11 11 11 12 11 9 8 8 8 7 8 8 9 11 12 12 11 8 9 9 10 10 10 11 11 11 12
15 14 14 14 15 15 15 15 14 14 14 14 14 14 14 13 13 13 11 10 10 11 12 11 12 12 13 12 12 12 12 11 11 11 12 12 12 12 12 11 12 12 12 11 10 10 10 9 9 10 10 9 9 9 10 11 12 12 12 9 10 11 11 12 11 11 11 11 12
15 14 14 13 14 14 14 14 13 13 14 14 14 14 14 13 14 13 12 12 12 12 12 12 12 13 12 11 12 12 12 12 12 12 12 12 12 12 12 12 12 12 12 12 11 10 9 10 10 11 11 11 9 9 10 12 12 13 13 12 12 12 12 13 12 11 10 11 12
15 14 13 13 14 14 14 14 13 13 13 15 14 14 13 13 13 13 13 14 13 12 11 12 12 12 12 11 11 11 12 12 12 12 12 12 12 13 13 13 13 13 13 12 11 10 10 10 11 12 12 12 10 9 10 12 12 13 13 13 13 13 13 13 13 12 11 11 11
15 14 14 13 14 14 14 14 12 12 13 15 14 14 13 13 13 13 13 14 13 12 11 11 11 12 12 12 12 12 12 12 13 13 13 12 12 13 13 13 13 13 13 12 12 12 12 11 12 13 13 13 12 11 11 12 12 13 13 14 14 14 14 13 13 12 12 12 12
15 15 14 14 14 14 13 14 12 12 13 14 14 13 13 12 12 13 13 13 13 12 11 11 11 11 12 13 13 13 13 13 13 14 14 13 13 13 14 13 14 13 13 12 12 13 13 13 13 13 13 13 13 13 12 12 13 13 13 14 14 14 13 13 13 13 13 13 12
15 15 15 14 14 14 14 14 12 12 13 13 13 13 12 12 12 12 13 14 13 12 11 12 11 11 12 13 14 14 14 13 14 14 14 14 14 14 14 14 14 14 14 13 13 13 13 13 13 13 13 13 13 13 13 13 13 13 13 13 13 13 13 13 13 13 13 13 13
15 15 15 15 16 16 15 14 12 12 12 13 13 13 13 12 11 12 13 14 12 12 12 13 12 11 12 12 13 13 13 13 14 14 14 14 15 15 15 15 14 14 14 14 14 13 13 13 12 12 13 13 13 13 13 13 13 13 13 13 13 13 13 13 13 13 13 13 13
16 16 16 16 17 17 17 16 14 13 13 14 13 13 13 12 12 12 13 14 13 14 14 14 13 12 12 13 13 12 12 13 14 14 14 14 14 14 14 15 14 14 14 14 14 14 14 13 13 12 12 12 12 12 12 12 12 12 12 12 12 12 12 12 12 12 12 13 13
16 16 16 17 18 18 17 17 16 15 14 13 13 12 13 13 13 13 12 14 14 15 15 14 14 13 13 14 13 12 12 13 14 14 14 14 14 14 14 14 14 14 14 14 14 13 13 13 13 12 12 11 11 11 11 12 11 11 12 12 12 12 12 12 12 11 11 12 12
17 17 17 18 18 17 17 17 16 15 14 13 13 13 13 13 13 13 13 14 14 14 14 14 14 14 14 14 14 13 13 12 13 14 14 13 14 14 14 14 14 13 13 13 13 13 13 13 13 12 12 12 12 11 11 11 11 11 11 10 11 11 11 11 11 11 11 11 12
17 17 17 17 17 17 17 16 16 15 14 13 13 13 13 13 14 14 14 14 14 14 14 15 15 14 14 14 15 14 13 11 12 13 13 13 14 14 14 13 13 13 13 13 12 13 13 12 12 12 12 12 12 12 11 10 10 10 10 9 10 10 10 10 10 11 11 11 11
17 17 16 16 16 16 16 15 15 15 15 14 14 14 14 14 14 14 14 13 13 14 14 15 15 15 15 14 14 14 13 11 11 12 12 12 13 13 13 12 12 12 12 12 12 12 12 12 12 12 12 11 11 11 11 10 10 10 10 10 10 10 10 10 10 10 11 11 11
16 15 15 14 15 15 15 15 15 15 15 15 14 14 14 14 14 13 13 13 13 14 14 14 14 14 14 14 14 13 13 11 11 11 11 11 12 12 12 11 12 12 12 12 11 12 11 11 11 11 11 11 11 11 11 11 10 10 10 10 10 10 10 10 10 10 11 11 11
15 14 13 12 13 14 14 14 14 15 15 15 15 14 14 14 13 13 13 13 13 14 14 12 12 13 13 13 13 13 13 13 12 12 12 12 11 11 11 11 11 11 11 10 10 11 11 10 10 10 10 10 10 10 10 11 10 10 10 10 10 10 10 10 10 11 11 11 10
14 14 13 12 13 14 14 14 15 15 15 15 14 14 14 13 13 13 13 14 14 14 14 13 12 12 12 12 12 12 13 13 13 12 12 12 11 11 11 10 10 10 9 9 12 13 13 11 10 9 9 9 9 10 10 10 11 10 10 10 10 10 10 11 11 11 11 10 9
14 14 14 14 14 14 14 15 15 15 15 14 14 13 13 13 13 13 13 14 14 14 13 13 12 11 10 11 11 12 12 11 12 12 12 11 12 11 11 9 9 8 8 10 13 15 16 15 13 11 10 9 9 9 9 9 10 10 10 10 10 10 10 10 11 11 10 9 9
14 14 14 14 14 14 14 14 14 14 14 13 14 13 13 13 12 12 13 13 13 13 12 12 11 10 10 9 11 11 11 10 10 11 11 11 11 12 11 10 9 8 8 11 15 17 18 18 17 14 12 9 9 9 8 8 9 9 9 9 9 10 10 11 11 11 10 9 8
14 14 14 14 14 14 14 14 14 14 14 14 14 13 13 12 12 12 13 13 12 12 11 10 10 9 8 8 10 11 11 10 9 9 10 10 11 11 11 10 9 8 9 13 16 18 19 19 18 17 14 11 9 8 8 8 8 9 9 9 9 10 10 10 10 10 10 10 9
14 14 14 14 14 14 14 14 14 14 14 14 13 13 12 12 13 13 12 12 12 11 10 9 8 7 7 8 9 10 10 10 9 8 9 9 10 10 10 10 9 9 11 14 16 18 19 19 19 18 16 13 9 7 7 7 8 8 8 8 9 9 10 10 9 9 9 9 9
14 14 14 14 14 14 14 14 14 14 13 12 13 13 13 13 13 12 12 12 12 11 10 8 8 8 9 9 9 9 9 9 8 8 8 9 10 10 10 9 9 9 10 14 16 17 18 19 19 18 17 15 10 8 6 7 7 8 8 8 9 10 10 10 9 9 9 8 9
13 13 13 14 14 14 14 14 14 13 13 12 12 13 13 13 13 12 12 12 11 10 9 8 9 9 10 9 9 9 9 8 8 8 8 9 9 9 9 9 8 8 9 13 15 16 17 18 18 18 17 16 11 8 6 7 7 7 8 8 9 10 10 9 9 9 9 9 9
12 12 13 13 13 13 13 13 13 13 13 13 13 13 13 12 12 11 11 10 10 9 9 9 10 10 9 9 8 8 9 8 8 8 8 8 8 8 8 7 7 7 8 11 14 15 16 17 17 17 17 16 10 8 7 7 7 7 8 8 9 10 10 8 8 9 9 9 9
11 12 12 12 12 12 12 12 12 12 12 12 12 12 12 12 11 10 10 9 9 9 10 10 10 10 9 9 9 9 8 8 8 8 8 8 7 7 7 6 5 5 6 10 12 14 15 15 16 16 16 15 10 8 7 7 7 7 7 8 9 9 9 9 8 8 9 9 8
11 11 11 11 11 11 11 11 11 12 12 12 11 11 11 11 11 10 10 9 8 8 8 8 9 8 8 8 8 8 8 7 7 8 8 7 7 7 6 5 3 3 5 9 11 13 14 15 15 16 16 15 10 8 8 8 7 7 7 8 8 8 9 9 8 8 8 9 8
10 11 11 11 10 10 10 11 11 11 11 11 11 11 10 10 10 10 9 8 8 7 7 7 7 7 7 7 7 8 8 8 7 7 7 7 7 6 6 5 3 4 6 9 11 12 13 14 15 16 16 14 9 7 8 8 7 7 7 8 8 8 8 8 8 8 8 8 8
10 10 10 10 10 10 10 10 11 11 11 11 11 11 10 10 9 9 8 8 8 8 7 7 7 7 7 7 7 7 8 8 8 7 7 7 6 6 6 5 4 5 7 9 11 12 13 15 16 16 15 12 8 7 7 7 7 7 8 8 8 8 8 8 7 7 7 7 7
9 9 9 9 9 9 10 10 10 11 11 11 10 10 10 9 9 8 8 8 8 8 8 8 7 8 8 7 7 7 7 7 8 7 7 7 6 6 6 5 5 5 7 9 11 13 14 15 16 16 14 10 7 7 6 6 6 6 7 7 7 7 7 6 6 6 6 7 7
8 8 8 8 8 9 9 10 10 10 10 10 10 10 9 9 8 8 8 8 8 8 8 8 8 8 8 8 7 7 7 7 7 7 7 7 6 6 5 5 5 6 7 10 11 13 14 15 15 14 12 8 8 7 6 5 5 5 6 6 6 6 6 5 5 5 6 7 7
7 7 7 8 8 9 9 9 9 10 10 10 10 10 9 9 8 8 7 7 7 8 8 8 8 8 8 8 8 7 7 7 7 7 7 6 6 6 6 6 6 6 7 9 11 12 13 14 14 13 11 8 7 6 5 4 5 5 5 5 5 5 5 5 4 4 5 6 7
6 7 7 7 8 8 9 9 9 9 9 10 10 10 9 9 8 8 7 6 7 7 8 8 9 9 8 8 8 8 8 7 6 6 6 6 6 6 6 6 6 6 7 9 10 11 12 13 13 12 9 7 6 5 4 4 4 5 5 4 4 4 4 4 4 4 4 5 7
6 6 7 7 8 8 8 9 9 9 9 10 10 10 9 9 8 8 7 7 7 7 7 8 9 9 9 8 8 8 8 8 7 6 6 6 6 6 7 7 7 7 7 8 10 11 11 11 11 10 8 5 5 4 4 3 4 4 5 5 4 4 4 4 4 4 4 5 5
Wind_Direction
205 204 203 202 202 203 205 207 207 208 209 210 208 206 204 205 208 209 208 207 208 209 208 208 206 203 199 197 197 197 198 200 201 202 202 203 203 201 200 199 198 198 199 199 198 196 196 196 197 199 201 203 205 205 204 201 200 201 202 203 205 206 206 203 202 201 200 198 197
205 204 203 201 201 201 203 204 205 206 207 208 208 206 204 204 207 208 208 207 208 207 207 207 206 202 197 195 196 197 198 200 201 202 203 205 204 202 200 200 199 198 197 197 196 195 194 194 196 198 201 202 203 204 203 199 198 201 203 204 204 205 205 205 204 203 201 200 198
203 203 203 202 201 201 201 203 203 204 205 207 207 206 205 205 206 208 209 208 207 207 206 206 205 202 198 194 194 196 198 200 200 201 202 204 204 203 201 201 199 197 197 196 196 195 193 192 194 198 200 201 202 203 202 198 198 201 204 205 204 203 203 206 203 201 200 200 199
202 203 203 204 203 203 203 203 203 202 203 203 204 205 207 206 207 209 210 209 208 208 207 204 202 201 199 194 194 196 199 201 201 201 202 203 203 203 202 200 199 197 196 196 196 195 194 191 193 198 202 203 204 204 202 196 196 199 203 204 203 203 203 203 201 199 197 199 199
202 203 204 205 205 205 205 204 203 202 201 201 202 203 205 207 207 209 208 208 207 206 205 202 199 197 197 196 196 197 199 201 201 201 202 203 203 202 201 200 199 197 195 195 195 195 194 192 194 199 203 204 205 205 202 195 194 198 201 203 203 203 202 201 199 197 196 196 196
202 203 205 206 206 206 207 206 205 204 202 199 201 202 204 204 205 205 206 207 207 206 204 201 198 197 197 199 199 199 200 201 201 202 202 202 201 201 200 200 199 197 195 194 194 194 194 193 195 200 203 205 207 207 204 196 194 196 200 203 203 202 201 201 199 197 196 197 195
202 203 204 206 206 206 206 206 205 204 202 202 204 205 205 204 204 205 206 206 205 203 201 199 198 197 197 199 199 199 199 200 201 202 202 202 201 200 199 198 197 196 195 193 193 193 193 194 196 199 201 203 205 206 204 199 196 197 200 203 202 201 201 202 199 197 197 200 197
202 203 204 205 205 206 206 205 204 203 203 205 206 207 207 205 205 205 206 206 204 201 199 198 199 199 198 197 198 198 199 200 201 202 202 202 201 199 198 197 196 196 195 193 192 192 193 194 198 200 200 201 203 203 202 200 199 199 201 203 202 199 199 200 199 198 199 201 200
202 203 204 204 205 206 206 205 205 205 206 208 209 209 208 207 206 206 207 207 205 201 198 198 200 200 199 198 197 197 198 199 201 202 202 202 201 199 197 196 196 196 195 193 193 192 192 194 199 202 202 200 200 200 199 198 200 201 203 205 204 201 199 200 200 201 202 203 203
200 201 201 203 204 205 205 205 207 208 210 212 212 211 209 208 207 207 207 207 204 202 201 200 199 199 199 199 198 197 198 199 201 202 203 202 201 199 197 196 195 195 194 193 193 193 193 196 201 204 204 203 201 199 197 196 199 202 204 208 206 204 202 202 202 203 204 205 204
200 199 199 201 202 203 204 205 208 210 212 214 214 213 211 210 209 209 208 206 205 205 205 202 199 199 199 198 198 198 197 198 200 201 202 203 202 200 199 197 196 195 194 192 192 192 194 199 202 204 205 204 202 199 197 195 199 202 206 210 208 207 205 204 203 204 206 206 205
202 200 199 200 200 201 202 204 207 210 213 215 215 214 212 211 210 209 207 207 208 207 206 203 200 199 199 198 197 197 197 198 199 201 203 204 203 202 200 199 197 196 194 193 191 192 196 201 202 204 204 204 203 200 197 195 198 202 207 210 210 209 207 206 203 203 205 205 205
203 201 199 199 199 200 201 205 207 210 212 214 214 214 213 212 210 208 207 208 208 207 204 202 201 200 199 198 197 196 197 197 199 200 202 204 204 203 202 201 199 197 196 194 193 195 197 200 202 202 203 203 204 202 198 195 198 202 206 209 210 210 209 206 203 202 203 204 205
204 202 200 198 197 199 201 205 207 209 211 213 213 213 212 212 209 207 207 208 207 205 202 200 201 201 200 199 197 197 196 196 197 199 202 203 203 204 204 203 201 199 197 196 196 197 199 200 201 202 203 203 205 204 201 198 200 203 206 209 211 211 210 205 202 201 201 203 204
204 204 201 198 197 199 202 204 207 210 211 212 211 210 210 210 207 205 205 206 206 203 200 199 199 200 201 200 199 198 197 197 197 199 201 202 203 204 204 204 202 200 199 197 198 199 201 202 202 202 203 204 205 205 204 201 203 205 207 210 211 211 210 206 201 200 200 202 203
205 204 203 200 200 201 203 204 207 210 211 211 209 207 207 207 205 204 203 204 203 201 200 199 199 199 199 200 200 199 199 199 198 199 200 202 202 203 204 205 203 202 200 199 199 201 202 204 203 204 204 205 205 206 205 204 205 207 209 212 212 212 211 207 203 201 201 202 203
205 205 203 202 202 204 205 206 208 209 210 210 207 206 205 205 203 202 201 201 201 200 199 199 197 196 196 197 199 199 200 200 200 201 201 202 201 202 203 205 204 202 201 201 201 202 203 203 204 205 206 206 206 206 206 206 207 209 210 212 213 214 212 210 205 204 203 204 205
205 205 204 204 205 206 207 208 209 210 210 209 207 205 204 204 202 200 200 200 200 199 199 198 196 195 195 196 196 198 199 201 201 202 202 202 201 201 202 204 204 203 202 202 203 203 203 203 204 204 205 206 207 207 207 207 209 210 211 212 214 214 214 212 208 206 205 205 206
206 206 205 206 208 208 209 209 211 211 210 209 207 205 204 204 202 200 198 199 199 199 198 197 196 196 196 196 196 197 199 201 202 202 202 202 201 201 202 203 203 203 203 204 204 204 203 202 202 203 204 206 207 207 208 208 209 210 210 212 213 214 214 213 209 207 205 205 205
207 206 206 207 208 209 210 210 211 212 212 210 208 207 205 205 202 200 199 199 199 198 198 197 196 197 197 197 196 197 199 201 202 202 202 201 201 201 201 202 202 203 204 204 205 205 204 203 202 202 203 205 206 207 207 208 208 209 209 210 212 212 212 211 208 206 205 205 205
208 208 207 207 208 208 210 211 211 212 212 212 210 209 207 205 204 202 201 199 197 197 197 198 198 197 197 197 197 198 199 201 201 202 202 201 201 201 201 200 201 202 203 204 204 204 203 202 201 201 203 205 206 207 206 205 206 206 206 207 209 209 209 209 207 205 204 204 204
210 209 208 207 207 208 210 210 210 211 212 212 211 209 207 205 205 204 202 199 197 197 198 200 200 199 198 197 197 198 198 200 201 201 201 200 201 200 199 198 199 200 201 203 203 203 202 201 200 200 202 204 205 205 205 203 203 203 204 205 205 205 205 205 205 204 203 203 202
211 209 207 206 207 208 209 209 209 210 211 212 210 209 207 205 205 204 202 199 199 199 200 200 200 200 199 198 198 197 198 199 200 200 200 200 199 198 197 196 198 199 200 201 201 199 198 198 199 200 201 202 203 203 203 202 201 201 201 202 202 202 201 202 203 202 202 201 200
211 208 206 205 205 206 207 207 207 208 209 210 208 207 205 204 203 203 202 202 202 201 201 200 199 199 198 198 198 198 198 198 198 199 199 198 197 196 194 194 196 198 199 199 198 196 194 193 195 196 198 199 200 200 200 200 200 199 199 199 199 199 199 199 200 200 199 198 197
209 207 206 204 203 203 204 204 205 207 207 207 206 204 203 203 202 202 202 203 203 202 201 200 198 196 196 197 198 198 199 199 198 197 196 195 195 193 193 194 196 198 199 198 196 194 193 192 191 191 192 194 195 196 197 198 199 198 197 197 197 196 196 197 197 197 196 194 193
207 206 205 204 202 202 202 203 204 205 205 204 203 202 201 201 201 201 202 204 204 203 201 199 196 194 192 193 195 197 198 199 198 196 194 193 193 192 193 195 196 197 198 196 194 194 194 194 192 190 187 188 190 191 193 195 197 197 196 195 194 193 193 193 194 193 192 188 189
205 204 204 203 201 200 201 202 202 202 202 202 201 200 200 198 198 200 202 204 203 202 200 198 194 190 188 190 192 194 196 197 197 196 194 193 192 192 194 197 197 198 197 195 193 194 195 195 193 190 186 183 185 187 189 189 190 190 191 191 192 193 192 192 190 189 187 185 187
203 202 201 199 200 200 200 199 199 199 199 199 198 197 196 195 196 198 200 202 201 200 198 197 191 187 184 187 191 193 193 193 194 194 194 194 194 195 197 200 199 199 197 194 193 194 195 196 193 190 185 181 179 180 183 183 182 184 186 189 192 193 192 192 188 185 183 182 184
202 200 198 197 199 199 198 196 196 197 196 195 194 192 192 192 194 196 198 199 199 198 196 193 187 183 183 185 187 188 189 190 191 192 193 195 197 199 201 204 203 200 197 194 194 195 196 196 193 190 186 181 177 177 179 181 179 181 185 188 190 190 189 189 186 183 180 180 183
201 198 197 196 197 196 196 195 194 193 191 189 188 188 188 189 191 193 195 196 197 197 195 189 183 183 183 182 180 180 182 186 187 189 191 195 198 201 204 206 206 202 197 195 196 196 196 196 194 191 187 182 177 175 176 180 179 180 182 183 184 184 183 184 182 180 180 180 184
199 197 197 196 196 195 195 193 190 187 184 182 182 183 185 186 188 190 192 194 195 195 192 186 184 182 181 176 173 174 177 179 182 186 191 195 198 202 204 207 208 205 200 197 198 197 197 196 194 191 186 181 178 175 175 178 178 178 178 178 178 177 177 178 179 181 183 184 187
197 196 196 195 194 194 192 189 185 182 179 177 178 179 181 183 185 186 187 188 189 189 188 185 184 181 177 172 170 172 173 175 179 184 188 191 195 199 201 204 206 206 203 200 200 200 198 197 194 190 184 179 175 172 172 175 176 176 174 171 172 173 174 175 179 184 188 190 194
195 194 194 193 192 190 187 183 180 176 174 173 173 175 177 178 178 178 179 181 183 185 185 184 182 179 174 171 169 169 170 172 176 179 183 186 190 192 194 199 203 206 206 203 203 202 199 197 193 187 181 175 172 170 171 173 173 173 171 168 170 173 176 179 183 187 191 195 199
192 192 192 191 189 185 180 176 173 171 168 168 169 169 170 170 170 170 171 174 177 179 181 181 178 175 171 167 166 166 166 167 170 173 176 179 181 183 185 187 188 198 203 205 205 203 199 195 190 183 176 171 169 169 172 172 171 169 168 167 171 175 180 185 189 192 195 199 203
190 190 189 188 184 178 173 170 167 165 164 163 163 163 163 163 163 163 163 165 166 167 169 169 166 162 158 158 159 160 161 161 163 165 167 168 171 175 178 179 177 188 199 205 204 201 197 192 186 179 173 169 168 169 171 170 169 169 169 170 174 178 183 188 193 197 200 203 207
188 187 186 182 176 171 167 165 162 161 160 159 157 156 155 155 154 153 153 153 155 156 157 155 152 149 148 150 154 157 158 157 156 156 156 158 162 167 171 173 175 185 196 203 202 198 193 188 182 176 170 164 164 167 169 169 169 171 174 177 180 183 186 190 195 201 204 207 211
187 184 180 174 168 165 162 160 158 157 156 154 150 148 146 144 142 143 144 147 151 152 151 149 148 148 149 149 150 150 150 149 147 147 148 151 157 162 166 168 173 182 192 200 199 194 188 183 178 171 164 158 160 164 167 169 171 175 179 184 186 187 188 191 197 203 208 212 213
181 177 172 165 161 158 157 156 155 153 149 145 141 138 136 134 135 137 141 146 150 150 150 148 147 145 143 141 137 135 133 135 138 140 143 147 154 159 162 162 167 177 188 195 194 188 182 177 169 161 155 152 158 163 167 171 174 177 182 188 190 191 192 195 200 207 212 215 217
168 165 160 155 153 152 151 151 148 144 139 133 129 128 128 129 130 133 137 142 146 147 145 142 139 135 132 130 126 124 124 125 130 134 138 144 150 156 159 157 159 169 180 187 184 178 172 167 157 151 148 151 157 163 168 173 178 182 186 192 195 197 199 202 208 213 217 218 219
150 149 147 145 146 145 144 141 136 131 126 124 123 123 124 125 123 124 127 132 136 136 135 131 128 126 124 124 121 119 119 118 121 126 131 138 146 153 156 152 152 159 168 173 169 166 162 158 152 149 149 153 159 163 168 176 183 188 193 197 201 204 205 207 211 218 223 223 222
132 134 135 135 136 134 131 126 121 118 117 118 119 119 118 118 117 119 123 127 129 128 125 123 122 122 121 119 118 117 116 114 115 119 126 134 143 149 151 147 145 147 151 156 156 156 157 157 155 154 155 155 160 165 171 180 190 197 202 204 206 208 209 209 212 217 223 226 226